User: anonymous   Login
Location: Unspecified
(0.0000°N, 0.0000°E)
Time: 19:04:13
(UTC+00:00)
Language:

STARLINK-1724 - Orbit

View from above orbital plane
View from above orbital plane
View from above satellite
View from above satellite

Ground track
Ground track

The orbit is defined by the following mean orbital elements,

1 46375U          26145.37555801 +.00000000 +00000-0 +72823-3 0 00005
2 46375  53.0233 272.7731 0003995 236.8789 123.1843 15.68003065    07
Epoch (UTC): 25 May 2026 09:00:48
Eccentricity: 0.0003995
inclination: 53.0233°
perigee height: 362 km
apogee height: 367 km
right ascension of ascending node: 272.7731°
argument of perigee: 236.8789°
revolutions per day: 15.68003065
mean anomaly at epoch: 123.1843°

The dashed part of the orbit path shows where the satellite is in the earth's shadow,  

DLR